STARLINK-1847

Last updated on Tue Nov 24 2020 00:02:02 GMT+0000 (Coordinated Universal Time)

1 46739U 20074A 20328.58334491 .00008264 00000-0 95991-4 0 9991 2 46739 53.0547 13.4173 0001342 39.5576 30.4248 15.62754583 1805

Satellite not in orbit

STARLINK-1847